Вернуться в каталог

NOAA 16 DEB

АктивенSSO
NORAD 41071·DEBRIS·🇺🇸 United States

Запущен Sep 21, 2000 с Vandenberg Space Force Base

Loading…

Ближайшие Пролёты (ближайшие 24 часа)

TLE

СвежийSource: Space-Track

Эпоха: Sep 14, 2026, 13:06 UTC

1 41071U 00055AE  26257.54583612  .00002447  00000-0  95798-3 0  9997
2 41071  98.8241   7.1115 0011059  99.2008 261.0425 14.30394186558654

Отслеживайте NOAA 16 DEB в реальном времени с AllMySat

Download on the App Store